TIME,�g��[���C[MJ/h],����[MJ/h],�Ɩ�[MJ/h],�~�[[MJ/h],�①��[MJ/h],��y���[MJ/h],�Ǝ��q��[MJ/h],���̑��s��[MJ/h],�u�����`������[MJ/h]
2003/5/1 0:00,0.11088,0,0.0432,0.02304,0.44064,0.21024,0.04176,0,0.07632
2003/5/1 0:15,0.10944,0,0.05184,0.02448,0.22896,0.21456,0.0792,0,0.08928
2003/5/1 0:30,0.108,0,0.0432,0.0216,0,0.21312,0.07632,0,0.11088
2003/5/1 0:45,0.108,0,0.04464,0.0288,0.40464,0.21168,0.07344,0,0.07632
2003/5/1 1:00,0.10512,0,0.05328,0.02304,0.23904,0.21024,0.06624,0,0.09072
2003/5/1 1:15,0.108,0,0.04464,0.0216,0,0.21168,0.07488,0,0.10944
2003/5/1 1:30,0.108,0,0.0432,0.02448,0.37728,0.21024,0.0432,0,0.08064
2003/5/1 1:45,0.10368,0,0.0504,0.02448,0.252,0.21024,0.07632,0,0.09072
2003/5/1 2:00,0.11088,0,0.0432,0.0216,0,0.21168,0.07632,0,0.108
2003/5/1 2:15,0.108,0,0.04896,0.0288,0.36,0.21456,0.072,0,0.07776
2003/5/1 2:30,0.10944,0,0.04176,0.02448,0.26496,0.216,0.07776,0,0.08496
2003/5/1 2:45,0.1008,0,0.04896,0.0216,0,0.21168,0.072,0,0.10224
2003/5/1 3:00,0.11088,0,0.0432,0.0288,0.34416,0.21168,0.04176,0,0.08496
2003/5/1 3:15,0.11088,0,0.04752,0.02304,0.2664,0.21312,0.07344,0,0.08496
2003/5/1 3:30,0.10656,0,0.0432,0.0216,0,0.21312,0.0792,0,0.10656
2003/5/1 3:45,0.1152,0,0.0432,0.03024,0.34992,0.21312,0.07776,0,0.06624
2003/5/1 4:00,0.10368,0,0.04896,0.02592,0.26064,0.21312,0.07344,0,0.0864
2003/5/1 4:15,0.10944,0,0.04608,0.0216,0,0.21168,0.07488,0,0.10656
2003/5/1 4:30,0.11088,0,0.0432,0.03312,0.3384,0.21312,0.0432,0,0.08208
2003/5/1 4:45,0.10944,0,0.0432,0.02448,0.25488,0.21312,0.07488,0,0.09504
2003/5/1 5:00,0.10512,0,0.05472,0.0216,0,0.21312,0.07488,0,0.10368
2003/5/1 5:15,0.11088,0,0.0432,0.03312,0.34272,0.21312,0.07776,0,0.08208
2003/5/1 5:30,0.10368,0,0.0432,0.02448,0.23616,0.21168,0.07488,0,0.09216
2003/5/1 5:45,0.11088,0,0.0432,0.0216,0,0.21312,0.07776,0,0.11232
2003/5/1 6:00,0.108,0,0.09216,0.02736,0.37584,0.21168,0.04032,0,0.06912
2003/5/1 6:15,0.10368,0,0.0936,0.44928,0.22608,0.21312,0.07632,0,0.08784
2003/5/1 6:30,0.10944,0,0.17712,0.75312,0,0.21312,0.08208,0,0.06768
2003/5/1 6:45,0.26928,0,0.6336,1.32336,0.3672,0.21168,0.07776,0,-0.01584
2003/5/1 7:00,0.2808,0,0.5904,2.49552,0.45936,0.21744,1.09296,0,-0.19152
2003/5/1 7:15,0.2808,0,0.71568,0.0792,0.5616,0.21312,3.21984,0,-0.44496
2003/5/1 7:30,0.15408,0,0.56016,0.08208,0.5616,0.21168,2.60064,0,-0.32832
2003/5/1 7:45,0.108,0,0.54576,0.07488,0.44928,0.21312,0.72,0,-0.05328
2003/5/1 8:00,0.108,0,0.2376,0.02592,0.50112,0.21024,0.08208,0,0.04032
2003/5/1 8:15,0.10944,0,0.16848,0.0288,0.47664,0.2304,0.0792,0,0.03888
2003/5/1 8:30,0.108,0,0.15552,0.47232,0.46224,0.2088,0.08496,0,-0.00864
2003/5/1 8:45,0.10368,0,0.14976,0.02736,0.4464,0.31392,0.0792,0,0.03744
2003/5/1 9:00,0.11088,0,0.13536,0.02304,0.19584,0.31968,0.07632,0,0.07632
2003/5/1 9:15,0.11376,0,0.13968,0.02304,0.06912,0.2232,0.08064,0,0.08352
2003/5/1 9:30,0.10944,0,0.13248,0.02304,0.45072,0.10512,0.07344,0,0.07344
2003/5/1 9:45,0.11232,0,0.12816,0.02304,0.45072,0.12816,0.07344,0,0.072
2003/5/1 10:00,0.14832,0,0.1368,0.02448,0.1512,0.3384,0.07488,0,0.06336
2003/5/1 10:15,0.14688,0,0.13248,0.0216,0.08928,0.34704,0.0792,0,0.05904
2003/5/1 10:30,0.14112,0,0.13824,0.0216,0.4536,0.34416,0.07776,0,0.03888
2003/5/1 10:45,0.13536,0,0.13824,0.02736,0.40608,0.33552,0.07488,0,0.03456
2003/5/1 11:00,0.13536,0,0.14832,0.0216,0,0.33984,0.08064,0,0.07056
2003/5/1 11:15,0.13824,0,0.14256,0.02304,0.28656,0.33984,0.07776,0,0.05328
2003/5/1 11:30,0.14256,0,0.13536,0.02304,0.44784,0.28656,0.07632,0,0.04464
2003/5/1 11:45,0.14112,0,0.14112,0.02736,0.18432,0.32256,0.07776,0,0.072
2003/5/1 12:00,0.12528,0,0.12816,0.02304,0.06192,0.14256,0.0792,0,0.1152
2003/5/1 12:15,0.11232,0,0.1368,0.69264,0.4464,0.10368,0.0432,0,0.04032
2003/5/1 12:30,0.10944,0,0.19296,0.0288,0.39168,0.10368,0.14688,0,0.08352
2003/5/1 12:45,0.1224,0,0.12816,0.0216,0,0.10512,0.07776,0,0.12528
2003/5/1 13:00,0.11232,0,0.13536,0.02304,0.288,0.3024,0.07776,0,0.06912
2003/5/1 13:15,0.11952,0,0.13392,0.02448,0.44352,0.31392,0.0432,0,0.05184
2003/5/1 13:30,0.108,0,0.1368,0.02592,0.144,0.31536,0.08208,0,0.07056
2003/5/1 13:45,0.11808,0,0.13104,0.02304,0.08784,0.31248,0.07776,0,0.07056
2003/5/1 14:00,0.11664,0,0.1368,0.02448,0.45072,0.31248,0.07488,0,0.04752
2003/5/1 14:15,0.11376,0,0.1368,0.02736,0.32112,0.25776,0.07488,0,0.06336
2003/5/1 14:30,0.13824,0,0.13392,0.0216,0,0.27792,0.0432,0,0.09648
2003/5/1 14:45,0.14688,0,0.144,0.02304,0.36288,0.3384,0.072,0,0.0504
2003/5/1 15:00,0.14688,0,0.14832,0.02592,0.44496,0.32112,0.07632,0,0.04176
2003/5/1 15:15,0.1512,0,0.13536,0.0216,0.04464,0.31824,0.07632,0,0.08208
2003/5/1 15:30,0.15552,0,0.13536,0.0216,0.20016,0.34272,0.07632,0,0.06048
2003/5/1 15:45,0.11664,0,0.16704,0.02304,0.44784,0.20304,0.07056,0,0.07056
2003/5/1 16:00,0.11232,0,0.13104,0.02448,0.324,0.10512,0.0432,0,0.08064
2003/5/1 16:15,0.11232,0,0.13968,0.0216,0,0.10656,0.07776,0,0.0936
2003/5/1 16:30,0.11088,0,0.13392,0.02448,0.34848,0.10656,0.07056,0,0.06912
2003/5/1 16:45,0.11808,0,0.13104,0.02448,0.40896,0.10656,0.07344,0,0.0576
2003/5/1 17:00,0.11088,0,0.13392,0.0216,0,0.108,0.04032,0,0.11088
2003/5/1 17:15,0.10944,0,0.13248,0.02448,0.30384,0.10512,0.072,0,0.08208
2003/5/1 17:30,0.10368,0,0.24336,0.02592,0.4464,0.108,0.07056,0,0.05184
2003/5/1 17:45,0.108,0,1.1016,0.02304,0.08208,0.10224,0.07488,0,-0.01728
2003/5/1 18:00,0.10224,0,1.18512,0.03168,0.34704,0.10512,0.072,0,-0.02592
2003/5/1 18:15,0.11088,0,1.22832,0.0288,0.44784,0.10512,0.03888,0,0.00144
2003/5/1 18:30,0.12096,0,1.27152,0.02304,0.1368,0.10368,0.07488,0,0.02448
2003/5/1 18:45,0.11088,0,2.06208,0.02304,0.11808,0.10368,0.072,0,-0.0792
2003/5/1 19:00,0.10656,0,2.28816,0.02592,0.44784,0.10368,0.07344,0,-0.1296
2003/5/1 19:15,0.11808,0,2.52432,0.03168,0.33552,0.10224,0.07776,0,-0.144
2003/5/1 19:30,0.1944,0,2.556,0.0216,0,0.10368,0.04176,0,-0.10224
2003/5/1 19:45,0.28944,0,1.92672,0.88704,0.41328,0.10224,0.07488,0,-0.23184
2003/5/1 20:00,0.28656,0,1.68336,0.02448,0.44352,0.1008,0.07488,0,-0.13104
2003/5/1 20:15,0.28656,0,1.8072,0.02448,0.15984,0.10368,0.07488,0,-0.11952
2003/5/1 20:30,0.20016,0,2.64384,0.02304,0.1224,0.10368,0.07344,0,-0.16848
2003/5/1 20:45,0.108,0,3.00672,0.02304,0.45216,0.10224,0.0432,0,-0.2088
2003/5/1 21:00,0.07632,0,1.65456,0.02304,0.30528,0.43056,0.07344,0,-0.07056
2003/5/1 21:15,0.03744,0,1.83888,0.59328,0.0216,0.44496,0.06912,0,-0.1368
2003/5/1 21:30,0.108,0,2.75616,0.46944,0.42336,0.44784,0.07344,0,-0.28512
2003/5/1 21:45,0.108,0,2.4912,0.02448,0.44496,0.38448,0.54576,0,-0.2808
2003/5/1 22:00,0.108,0,1.88496,0.0216,0.108,0.21024,0.26208,0,-0.13392
2003/5/1 22:15,0.108,0,1.99296,0.02448,0.18432,0.21024,0.0432,0,-0.11088
2003/5/1 22:30,0.108,0,2.0016,0.03024,0.4536,0.21024,1.19376,0,-0.29952
2003/5/1 22:45,0.108,0,1.52352,0.02592,0.2952,0.21456,0.072,0,-0.072
2003/5/1 23:00,0.108,0,1.24416,0.0216,0,0.21456,0.07056,0,-0.01728
2003/5/1 23:15,0.11088,0,0.57024,0.02592,0.43632,0.21024,0.07488,0,-0.00864
2003/5/1 23:30,0.10944,0,0.38448,0.02736,0.40464,0.26064,0.04032,0,0.00432
2003/5/1 23:45,0.10944,0,0.04608,0.0216,0,0.22032,0.07776,0,0.10368
2003/5/2 0:00,0.10656,0,0.04896,0.02304,0.32688,0.21168,0.07488,0,0.07488
2003/5/2 0:15,0.10944,0,0.04464,0.02448,0.44496,0.21312,0.07344,0,0.06624
2003/5/2 0:30,0.11088,0,0.04464,0.02448,0.04752,0.21024,0.07632,0,0.10224
2003/5/2 0:45,0.10512,0,0.0432,0.02448,0.22896,0.21024,0.06912,0,0.1008
2003/5/2 1:00,0.11232,0,0.0432,0.0216,0.44784,0.21312,0.0432,0,0.0648
2003/5/2 1:15,0.11088,0,0.04608,0.02304,0.0936,0.21456,0.07344,0,0.09504
2003/5/2 1:30,0.108,0,0.04608,0.02304,0.17712,0.21024,0.07488,0,0.08784
2003/5/2 1:45,0.10224,0,0.0432,0.02304,0.45072,0.21024,0.07344,0,0.06336
2003/5/2 2:00,0.10368,0,0.05184,0.02304,0.14256,0.21024,0.07488,0,0.09072
2003/5/2 2:15,0.11088,0,0.04608,0.02304,0.11376,0.21312,0.07488,0,0.0936
2003/5/2 2:30,0.11088,0,0.0432,0.02304,0.45216,0.21168,0.0432,0,0.0648
2003/5/2 2:45,0.10224,0,0.0504,0.02304,0.18,0.21312,0.0792,0,0.0936
2003/5/2 3:00,0.11232,0,0.0432,0.02304,0.07488,0.21312,0.07776,0,0.10224
2003/5/2 3:15,0.11088,0,0.0432,0.02304,0.45072,0.21312,0.07632,0,0.0648
2003/5/2 3:30,0.108,0,0.0432,0.03456,0.48672,0.21312,0.0432,0,0.0504
2003/5/2 3:45,0.10512,0,0.05184,0.03744,0.54,0.21024,0.07344,0,0.03024
2003/5/2 4:00,0.11088,0,0.04752,0.03456,0.48816,0.21312,0.07344,0,0.04032
2003/5/2 4:15,0.10368,0,0.05616,0.02304,0.4896,0.21168,0.07488,0,0.06336
2003/5/2 4:30,0.10512,0,0.05328,0.02592,0.4968,0.21168,0.072,0,0.06192
2003/5/2 4:45,0.10944,0,0.04176,0.03024,0.4752,0.21312,0.0792,0,0.07776
2003/5/2 5:00,0.11088,0,0.0432,0.02304,0.46512,0.21168,0.0432,0,0.06624
2003/5/2 5:15,0.11232,0,0.07056,0.03168,0.44928,0.21312,0.07488,0,0.0648
2003/5/2 5:30,0.10656,0,0.0432,0.02304,0.23328,0.21312,0.0792,0,0.08928
2003/5/2 5:45,0.11088,0,0.0432,0.0216,0.02736,0.21312,0.0792,0,0.10656
2003/5/2 6:00,0.108,0,0.07776,0.02304,0.45216,0.21168,0.0432,0,0.07344
2003/5/2 6:15,0.10368,0,0.21168,0.69696,0.44208,0.21168,0.07488,0,0.0504
2003/5/2 6:30,0.10944,0,0.2376,0.65664,0.12096,0.21456,0.07776,0,0.02448
2003/5/2 6:45,0.10944,0,0.32256,0.02592,0.14688,0.21312,0.08064,0,0.06912
2003/5/2 7:00,0.108,0,0.44784,0.82224,0.44784,0.21888,0.42048,0,-0.04464
2003/5/2 7:15,0.10944,0,0.468,0.81792,0.47808,0.21312,0.15984,0,-0.06192
2003/5/2 7:30,0.108,0,0.44496,0.03168,0.44784,0.21168,0.44208,0,-0.05616
2003/5/2 7:45,0.108,0,0.51264,0.02304,0.13824,0.21312,0.432,0,-0.01872
2003/5/2 8:00,0.108,0,0.52272,0.02304,0.09648,0.21024,0.2952,0,0.00288
2003/5/2 8:15,0.11088,0,0.24048,0.504,0.4536,0.21456,0.07776,0,-0.04752
2003/5/2 8:30,0.108,0,0.30096,0.39456,0.44928,0.21168,0.07488,0,-0.04464
2003/5/2 8:45,0.108,0,0.4752,0.16416,0.45072,0.21456,0.072,0,-0.02016
2003/5/2 9:00,0.108,0,0.09072,0.02304,0.19584,0.216,0.0792,0,0.05616
2003/5/2 9:15,0.11376,0,0.0432,0.0216,0.02448,0.21456,0.0432,0,0.08064
2003/5/2 9:30,0.11664,0,0.0432,0.03744,0.4536,0.21312,0.07776,0,0.03456
2003/5/2 9:45,0.11664,0,0.04608,0.03744,0.44928,0.21456,0.07344,0,0.036
2003/5/2 10:00,0.11232,0,0.0504,0.02304,0.42336,0.21312,0.0792,0,0.04176
2003/5/2 10:15,0.10944,0,0.0432,0.0216,0,0.21312,0.07632,0,0.08784
2003/5/2 10:30,0.11232,0,0.04896,0.03024,0.2736,0.21312,0.07344,0,0.05616
2003/5/2 10:45,0.10368,0,0.04464,0.0288,0.45072,0.21456,0.0648,0,0.04032
2003/5/2 11:00,0.11952,0,0.05472,0.02304,0.27216,0.21312,0.05472,0,0.05472
2003/5/2 11:15,0.11376,0,0.04608,0.0216,0,0.21456,0.07344,0,0.08064
2003/5/2 11:30,0.11232,0,0.0432,0.02592,0.45216,0.21168,0.07776,0,0.03888
2003/5/2 11:45,0.11952,0,0.0432,0.02448,0.43632,0.21168,0.07488,0,0.036
2003/5/2 12:00,0.11376,0,0.0432,0.0216,0,0.21744,0.07488,0,0.08064
2003/5/2 12:15,0.11808,0,0.0432,0.02304,0.29088,0.21168,0.0432,0,0.05328
2003/5/2 12:30,0.11088,0,0.04608,0.02448,0.4464,0.21168,0.07344,0,0.03888
2003/5/2 12:45,0.10656,0,0.04752,0.02592,0.16704,0.21312,0.07344,0,0.06624
2003/5/2 13:00,0.1152,0,0.0432,0.0216,0.11088,0.21312,0.07776,0,0.07344
2003/5/2 13:15,0.11376,0,0.04608,0.02592,0.4536,0.21456,0.03888,0,0.0432
2003/5/2 13:30,0.11088,0,0.05472,0.02592,0.3456,0.21312,0.072,0,0.04896
2003/5/2 13:45,0.10368,0,0.05472,0.0216,0,0.21312,0.072,0,0.08208
2003/5/2 14:00,0.11376,0,0.04608,0.0288,0.39744,0.21456,0.07344,0,0.03168
2003/5/2 14:15,0.11232,0,0.04752,0.03024,0.44784,0.21312,0.04032,0,0.03744
2003/5/2 14:30,0.10944,0,0.04752,0.0216,0.10224,0.216,0.07344,0,0.07056
2003/5/2 14:45,0.10224,0,0.04896,0.02304,0.1728,0.21312,0.07056,0,0.0648
2003/5/2 15:00,0.11376,0,0.05184,0.03456,0.45504,0.21168,0.0576,0,0.03312
2003/5/2 15:15,0.10224,0,0.05904,0.02592,0.30672,0.216,0.07488,0,0.04896
2003/5/2 15:30,0.11232,0,0.04608,0.0216,0,0.21312,0.07632,0,0.08064
2003/5/2 15:45,0.10944,0,0.04752,0.03024,0.41904,0.21312,0.04032,0,0.0432
2003/5/2 16:00,0.10944,0,0.04752,0.03024,0.44928,0.21312,0.07488,0,0.03744
2003/5/2 16:15,0.11232,0,0.04608,0.0216,0.0648,0.21312,0.06192,0,0.08064
2003/5/2 16:30,0.1152,0,0.05184,0.02304,0.216,0.21456,0.04608,0,0.06048
2003/5/2 16:45,0.10656,0,0.17856,0.02448,0.44928,0.21312,0.06912,0,0.01152
2003/5/2 17:00,0.11376,0,0.34128,0.02448,0.30384,0.21024,0.06336,0,-0.00144
2003/5/2 17:15,0.108,0,0.32976,0.0216,0,0.21168,0.07344,0,0.03024
2003/5/2 17:30,0.11376,0,0.324,0.02448,0.41328,0.21312,0.036,0,-0.00576
2003/5/2 17:45,0.11232,0,0.32832,0.02592,0.44784,0.21168,0.0648,0,-0.01584
2003/5/2 18:00,0.11232,0,0.48528,0.03312,0.4536,0.21168,0.07056,0,-0.03024
2003/5/2 18:15,0.11376,0,0.73152,0.0288,0.19584,0.21312,0.06768,0,-0.01296
2003/5/2 18:30,0.108,0,1.24272,0.4824,0.05472,0.21168,0.04032,0,-0.04464
2003/5/2 18:45,0.10224,0,1.6056,1.4616,0.45504,0.21168,0.07344,0,0.02016
2003/5/2 19:00,0.10944,0,1.80576,1.3392,0.45648,0.21312,0.07344,0,0.06048
2003/5/2 19:15,0.11376,0,2.24064,0.21456,0.40752,0.21312,0.036,0,-0.13968
2003/5/2 19:30,0.10368,0,3.14208,0.07488,0,0.21168,0.06624,0,-0.25344
2003/5/2 19:45,0.108,0,3.17952,0.072,0.32832,0.20448,0.3672,0,-0.33984
2003/5/2 20:00,0.108,0,2.74464,0.02736,0.4608,0.21024,0.072,0,-0.23184
2003/5/2 20:15,0.108,0,3.06432,0.02736,0.44784,0.20592,0.04032,0,-0.24192
2003/5/2 20:30,0.108,0,3.37392,0.02304,0.16848,0.1944,0.06768,0,-0.31392
2003/5/2 20:45,0.108,0,3.3552,0.02304,0.08352,0.19728,0.06912,0,-0.29232
2003/5/2 21:00,0.108,0,2.92464,0.036,0.4536,0.21312,0.06768,0,-0.2448
2003/5/2 21:15,0.108,0,2.8656,0.02592,0.44928,0.21456,0.05616,0,-0.23472
2003/5/2 21:30,0.0864,0,2.69712,0.02592,0.25776,0.21312,0.04896,0,-0.18576
2003/5/2 21:45,0.11232,0,2.40192,0.0216,0,0.21312,0.2448,0,-0.1728
2003/5/2 22:00,0.1008,0,1.8072,0.02592,0.4608,0.21024,0.072,0,-0.13104
2003/5/2 22:15,0.11088,0,1.52784,0.02592,0.4536,0.21168,0.03744,0,-0.07488
2003/5/2 22:30,0.108,0,1.19232,0.036,0.47808,0.21312,0.072,0,-0.09072
2003/5/2 22:45,0.10944,0,1.01952,0.03024,0.55296,0.21024,0.84528,0,-0.20592
2003/5/2 23:00,0.1008,0,0.72288,0.03312,0.54432,0.37728,0.62496,0,-0.15552
2003/5/2 23:15,0.108,0,0.6048,0.02448,0.47376,0.43056,0.03744,0,-0.0576
2003/5/2 23:30,0.11088,0,0.6264,0.02592,0.53136,0.42768,0.07344,0,-0.04608
2003/5/2 23:45,0.10512,0,0.60912,0.02592,0.50832,0.42624,0.06624,0,-0.0432
2003/5/3 0:00,0.10656,0,0.6048,0.02448,0.48816,0.43344,0.072,0,-0.04032
2003/5/3 0:15,0.10944,0,0.27648,0.03024,0.47088,0.26496,0.072,0,0.01152
2003/5/3 0:30,0.11088,0,0.04464,0.02448,0.46944,0.21312,0.03888,0,0.0504
2003/5/3 0:45,0.108,0,0.0432,0.0288,0.45216,0.2088,0.07632,0,0.0504
2003/5/3 1:00,0.11088,0,0.0432,0.02448,0.3816,0.216,0.07056,0,0.05472
2003/5/3 1:15,0.11232,0,0.0432,0.0216,0,0.21312,0.03888,0,0.09792
2003/5/3 1:30,0.10944,0,0.04896,0.03024,0.3528,0.21168,0.06768,0,0.06336
2003/5/3 1:45,0.10656,0,0.0432,0.03024,0.4464,0.216,0.07344,0,0.0432
2003/5/3 2:00,0.11088,0,0.0432,0.0216,0.17568,0.21024,0.072,0,0.06624
2003/5/3 2:15,0.11232,0,0.0432,0.0216,0.08064,0.21168,0.04032,0,0.09072
2003/5/3 2:30,0.11232,0,0.0432,0.03024,0.45216,0.21312,0.07488,0,0.04608
2003/5/3 2:45,0.10944,0,0.04896,0.02592,0.41328,0.21456,0.0648,0,0.05184
2003/5/3 3:00,0.11088,0,0.0432,0.0216,0,0.21312,0.07344,0,0.10656
2003/5/3 3:15,0.1152,0,0.0432,0.02736,0.29664,0.21312,0.04032,0,0.0576
2003/5/3 3:30,0.10944,0,0.04608,0.03168,0.4464,0.21312,0.07488,0,0.04032
2003/5/3 3:45,0.11232,0,0.04896,0.02304,0.1656,0.21168,0.07056,0,0.0792
2003/5/3 4:00,0.11808,0,0.0432,0.02448,0.08928,0.21456,0.07488,0,0.08352
2003/5/3 4:15,0.1152,0,0.0432,0.03168,0.44928,0.21168,0.03888,0,0.05472
2003/5/3 4:30,0.11808,0,0.0504,0.02592,0.31824,0.21456,0.06768,0,0.06192
2003/5/3 4:45,0.10944,0,0.0432,0.0216,0,0.21312,0.07488,0,0.10224
2003/5/3 5:00,0.11232,0,0.04464,0.0288,0.41328,0.21168,0.04032,0,0.04608
2003/5/3 5:15,0.10944,0,0.0432,0.02592,0.44352,0.21168,0.072,0,0.06912
2003/5/3 5:30,0.1152,0,0.04752,0.0216,0,0.21168,0.07488,0,0.09504
2003/5/3 5:45,0.108,0,0.0432,0.0288,0.27792,0.216,0.072,0,0.07632
2003/5/3 6:00,0.1152,0,0.072,0.03024,0.44496,0.216,0.03744,0,0.0576
2003/5/3 6:15,0.10944,0,0.58752,0.46512,0.0936,0.21312,0.07488,0,-0.03888
2003/5/3 6:30,0.108,0,0.62496,1.09584,0.2016,0.216,0.31104,0,-0.01296
2003/5/3 6:45,0.108,0,0.63648,0.0792,0.4608,0.21456,0.0792,0,-0.00432
2003/5/3 7:00,0.108,0,0.60768,0.02448,0.31536,0.22032,0.25056,0,-0.03888
2003/5/3 7:15,0.108,0,0.44928,0.0216,0,0.21168,0.60192,0,-0.00576
2003/5/3 7:30,0.108,0,0.45504,0.02592,0.3744,0.21168,0.76176,0,-0.07056
2003/5/3 7:45,0.108,0,0.49248,0.29952,0.44784,0.26064,0.51552,0,-0.1224
2003/5/3 8:00,0.70128,0,0.5184,0.02304,0.09072,0.2592,0.07632,0,-0.05472
2003/5/3 8:15,0.108,0,0.89568,0.0216,0.16416,0.2592,0.07776,0,-0.03312
2003/5/3 8:30,0.108,0,0.82656,0.02592,0.44784,0.2592,0.07488,0,-0.036
2003/5/3 8:45,0.108,0,0.83088,0.02448,0.26064,0.2592,0.07488,0,-0.01584
2003/5/3 9:00,0.108,0,0.81936,0.0216,0,0.24912,0.072,0,-0.0144
2003/5/3 9:15,0.11376,0,0.07056,0.03312,0.44352,0.216,0.06912,0,0.02736
2003/5/3 9:30,0.11376,0,0.04464,0.0288,0.40896,0.216,0.07344,0,0.03888
2003/5/3 9:45,0.11808,0,0.0432,0.0216,0,0.216,0.03744,0,0.08496
2003/5/3 10:00,0.10512,0,0.05328,0.02592,0.29376,0.216,0.07056,0,0.05184
2003/5/3 10:15,0.11232,0,0.04464,0.03168,0.44496,0.216,0.07344,0,0.02448
2003/5/3 10:30,0.10944,0,0.04608,0.02304,0.072,0.216,0.06912,0,0.07344
2003/5/3 10:45,0.11232,0,0.0504,0.02592,0.20736,0.216,0.07632,0,0.05904
2003/5/3 11:00,0.10944,0,0.16128,0.03024,0.45216,0.216,0.03888,0,0.02592
2003/5/3 11:15,0.11376,0,0.13824,0.02448,0.21456,0.216,0.07488,0,0.04608
2003/5/3 11:30,0.10944,0,0.04896,0.02304,0.04896,0.216,0.07056,0,0.07632
2003/5/3 11:45,0.11088,0,0.04752,0.03024,0.45504,0.216,0.04032,0,0.04176
2003/5/3 12:00,0.11376,0,0.04896,0.02736,0.38016,0.21888,0.07344,0,0.0432
2003/5/3 12:15,0.1008,0,0.04608,0.0216,0,0.216,0.06768,0,0.09216
2003/5/3 12:30,0.11088,0,0.05328,0.02736,0.3456,0.216,0.07344,0,0.04032
2003/5/3 12:45,0.11088,0,0.05184,0.0288,0.44928,0.216,0.06912,0,0.03744
2003/5/3 13:00,0.11088,0,0.04608,0.0216,0.09504,0.216,0.03744,0,0.07776
2003/5/3 13:15,0.11088,0,0.0504,0.02448,0.17856,0.216,0.072,0,0.0576
2003/5/3 13:30,0.10944,0,0.0504,0.03024,0.45792,0.216,0.06912,0,0.03312
2003/5/3 13:45,0.108,0,0.0432,0.02448,0.26352,0.216,0.05904,0,0.05616
2003/5/3 14:00,0.108,0,0.05184,0.02304,0.01584,0.216,0.04608,0,0.072
2003/5/3 14:15,0.11088,0,0.04896,0.03024,0.45936,0.216,0.07056,0,0.0216
2003/5/3 14:30,0.11232,0,0.04752,0.02592,0.4464,0.216,0.07056,0,0.036
2003/5/3 14:45,0.11664,0,0.04752,0.0216,0,0.216,0.036,0,0.08208
2003/5/3 15:00,0.11232,0,0.04752,0.0288,0.28224,0.216,0.072,0,0.05472
2003/5/3 15:15,0.10656,0,0.0432,0.02592,0.45648,0.216,0.06768,0,0.04176
2003/5/3 15:30,0.11376,0,0.04752,0.0216,0.17856,0.216,0.03744,0,0.06624
2003/5/3 15:45,0.11088,0,0.0504,0.02304,0.1008,0.216,0.06768,0,0.0648
2003/5/3 16:00,0.11088,0,0.04608,0.02592,0.46224,0.216,0.07056,0,0.03024
2003/5/3 16:15,0.11232,0,0.04608,0.0288,0.37584,0.216,0.036,0,0.04464
2003/5/3 16:30,0.108,0,0.04608,0.0216,0,0.216,0.06336,0,0.08064
2003/5/3 16:45,0.11376,0,0.04896,0.02448,0.36288,0.216,0.0648,0,0.03888
2003/5/3 17:00,0.11952,0,0.04464,0.03024,0.4536,0.216,0.03024,0,0.036
2003/5/3 17:15,0.10944,0,0.05904,0.02448,0.13536,0.216,0.07056,0,0.05904
2003/5/3 17:30,0.11952,0,0.19728,0.02304,0.14832,0.216,0.06192,0,0.04176
2003/5/3 17:45,0.11232,0,0.81936,0.02304,0.468,0.216,0.02592,0,-0.05904
2003/5/3 18:00,0.11088,0,0.5112,0.47664,0.49536,0.216,0.06624,0,-0.11808
2003/5/3 18:15,0.108,0,0.98784,0.02592,0.24192,0.216,0.06336,0,-0.00144
2003/5/3 18:30,0.10944,0,0.93024,0.0216,0.02736,0.216,0.03168,0,0.0216
2003/5/3 18:45,0.11088,0,0.95328,0.03312,0.45216,0.216,0.06048,0,-0.02736
2003/5/3 19:00,0.21888,0,1.45584,0.34704,0.4464,0.216,0.0648,0,-0.09792
2003/5/3 19:15,0.29376,0,1.60848,0.36432,0.53136,0.216,0.03168,0,-0.11376
2003/5/3 19:30,0.288,0,2.04336,0.39888,0.54288,0.216,0.06624,0,-0.19008
2003/5/3 19:45,0.29376,0,2.15712,0.0288,0.4608,0.216,0.072,0,-0.1944
2003/5/3 20:00,0.29376,0,2.16288,0.03024,0.54432,0.216,0.03312,0,-0.17856
2003/5/3 20:15,0.28368,0,2.41344,0.02592,0.52704,0.216,0.06768,0,-0.216
2003/5/3 20:30,0.21168,0,2.448,0.35856,0.51696,0.2808,0.06192,0,-0.27936
2003/5/3 20:45,0.11376,0,2.45376,0.29808,0.50256,0.43632,0.036,0,-0.26064
2003/5/3 21:00,0.10944,0,2.73888,0.24336,0.4824,0.432,0.06336,0,-0.29088
2003/5/3 21:15,0.108,0,2.70432,0.03888,0.47232,0.44064,0.06624,0,-0.26208
2003/5/3 21:30,0.108,0,2.88,0.02448,0.46944,0.288,0.216,0,-0.27936
2003/5/3 21:45,0.108,0,2.89296,0.02448,0.47088,0.216,0.06624,0,-0.25056
2003/5/3 22:00,0.11088,0,1.95984,0.0288,0.41184,0.216,0.5688,0,-0.18288
2003/5/3 22:15,0.108,0,1.2312,0.0216,0,0.216,0.06912,0,0.01872
2003/5/3 22:30,0.10944,0,1.23264,0.0216,0.35712,0.216,0.03744,0,-0.00864
2003/5/3 22:45,0.1008,0,1.4472,0.0216,0.47232,0.216,0.06336,0,-0.0936
2003/5/3 23:00,0.108,0,1.17504,0.02736,0.46224,0.216,0.06336,0,-0.07344
2003/5/3 23:15,0.108,0,1.17936,0.02448,0.216,0.216,1.23408,0,-0.17856
2003/5/3 23:30,0.108,0,1.51056,0.02448,0.07056,0.25632,0.19296,0,-0.11808
2003/5/3 23:45,0.10512,0,0.33408,0.02304,0.47088,0.44064,0.07344,0,-0.02592
2003/5/4 0:00,0.10944,0,0.29808,0.0288,0.46224,0.3312,0.06336,0,-0.01296
2003/5/4 0:15,0.10944,0,0.08352,0.02592,0.3744,0.2808,0.03888,0,0.02592
2003/5/4 0:30,0.10944,0,0.08208,0.0216,0,0.2808,0.072,0,0.05616
2003/5/4 0:45,0.10224,0,0.0864,0.03168,0.36576,0.2808,0.0648,0,0.03456
2003/5/4 1:00,0.10224,0,0.87696,0.03456,0.45648,0.42624,0.05616,0,-0.10656
2003/5/4 1:15,0.10944,0,1.11312,0.03024,0.35568,0.48384,0.05328,0,-0.14256
2003/5/4 1:30,0.10656,0,1.11168,0.0216,0,0.48528,0.06336,0,-0.0936
2003/5/4 1:45,0.10368,0,1.11168,0.02736,0.41184,0.47664,0.072,0,-0.14832
2003/5/4 2:00,0.11088,0,1.11168,0.03168,0.45648,0.47808,0.03744,0,-0.13824
2003/5/4 2:15,0.11232,0,1.10448,0.02592,0.23616,0.49536,0.07056,0,-0.1224
2003/5/4 2:30,0.11232,0,1.10592,0.0216,0.0504,0.4896,0.07056,0,-0.10224
2003/5/4 2:45,0.10944,0,0.66384,0.036,0.45504,0.324,0.036,0,-0.06048
2003/5/4 3:00,0.11232,0,0.23616,0.03168,0.4536,0.2808,0.06624,0,-0.00432
2003/5/4 3:15,0.10656,0,0.4536,0.02304,0.16416,0.2808,0.072,0,0.01728
2003/5/4 3:30,0.1152,0,0.40464,0.02448,0.1224,0.2808,0.03888,0,0.03168
2003/5/4 3:45,0.10944,0,0.40896,0.03744,0.45648,0.2808,0.06624,0,-0.00576
2003/5/4 4:00,0.10944,0,0.56592,0.02448,0.44064,0.24912,0.06912,0,-0.02736
2003/5/4 4:15,0.10944,0,0.26784,0.0216,0,0.21456,0.06768,0,0.06336
2003/5/4 4:30,0.11232,0,0.2592,0.0288,0.27936,0.21312,0.03744,0,0.04608
2003/5/4 4:45,0.10512,0,0.26064,0.04032,0.45072,0.21168,0.06912,0,0.02304
2003/5/4 5:00,0.10224,0,0.26064,0.02736,0.27504,0.21168,0.06912,0,0.04608
2003/5/4 5:15,0.11088,0,0.26496,0.0216,0,0.21168,0.03456,0,0.07056
2003/5/4 5:30,0.108,0,0.26064,0.03456,0.42912,0.21168,0.07344,0,0.03168
2003/5/4 5:45,0.11088,0,0.26064,0.03168,0.45072,0.21168,0.07056,0,0.01728
2003/5/4 6:00,0.10944,0,0.29088,0.02304,0.11808,0.21312,0.036,0,0.05904
2003/5/4 6:15,0.108,0,0.2592,0.02304,0.1368,0.21312,0.072,0,0.04608
2003/5/4 6:30,0.1008,0,0.27072,0.02736,0.4536,0.21312,0.06768,0,0.01872
2003/5/4 6:45,0.10944,0,0.2592,0.02592,0.38448,0.21168,0.04032,0,0.03024
2003/5/4 7:00,0.10656,0,0.2592,0.0216,0,0.21888,0.0648,0,0.07488
2003/5/4 7:15,0.10656,0,0.26496,0.02736,0.31536,0.21312,0.07056,0,0.02592
2003/5/4 7:30,0.11088,0,0.35856,0.02304,0.44928,0.21024,0.06768,0,0.01152
2003/5/4 7:45,0.11232,0,0.40032,0.02448,0.19584,0.21312,0.04032,0,0.04464
2003/5/4 8:00,0.108,0,0.684,1.86192,0.10656,0.21024,0.07344,0,-0.14256
2003/5/4 8:15,0.108,0,0.54144,0.03024,0.4608,0.21024,0.06768,0,-0.02448
2003/5/4 8:30,0.108,0,0.45648,0.03456,0.45072,0.21168,0.06624,0,-0.02304
2003/5/4 8:45,0.108,0,0.92592,0.02736,0.42768,0.35136,0.07776,0,-0.09504
2003/5/4 9:00,0.108,0,1.25712,0.0216,0,0.21024,0.07488,0,-0.00432
2003/5/4 9:15,0.10944,0,1.02528,0.0288,0.25632,0.21312,0.07632,0,-0.0072
2003/5/4 9:30,0.108,0,1.34352,1.23408,0.49248,0.21312,0.06624,0,-0.14544
2003/5/4 9:45,0.10944,0,1.10736,0.0288,0.4536,0.21456,0.072,0,-0.0432